Tracking 29892 objects as of 21-Nov-2024
HD Live streaming from Space Station
objects crossing your sky now

BREEZE-M DEB (TANK)

Track BREEZE-M DEB (TANK) now!
10-day predictions


NORAD ID: 39287
Int'l Code: 2013-056C
Perigee: 344.8 km
Apogee: 14,712.5 km
Inclination: 49.5 °
Period: 271.8 minutes
Semi major axis: 13899 km
RCS: Unknown
Launch date: September 29, 2013
Source: Commonwealth of Independent States (former USSR) (CIS)
Launch site: TYURATAM MISSILE AND SPACE COMPLEX (TTMTR)

Note: This is SATELLITE DEBRIS
Your satellite tracking list
Your tracking list is empty




NASA's NSSDC Master Catalog

Two Line Element Set (TLE):
1 39287U 13056C   24325.72716279  .00005083  00000-0  15338-2 0  9999
2 39287  49.4940  71.5468 5168379 158.9136 234.2353  5.29783139211782
Source of the keplerian elements: AFSPC